Date,TemperatureHighF,TemperatureAvgF,TemperatureLowF,DewpointHighF,DewpointAvgF,DewpointLowF,HumidityHigh,HumidityAvg,HumidityLow,PressureMaxIn,PressureMinIn,WindSpeedMaxMPH,WindSpeedAvgMPH,GustSpeedMaxMPH,PrecipitationSumIn
2013-1-1,51.3,41.0,33.7,25.0,17.1,3.0,65,42,14,30.19,30.01,11,2,12,0.00
2013-1-2,53.5,38.8,30.3,26.0,21.3,17.0,73,51,32,30.23,30.10,6,1,13,0.00
2013-1-3,34.9,30.0,25.8,28.0,25.8,23.0,92,84,66,30.43,30.20,7,2,15,0.00
2013-1-4,32.4,28.0,24.3,29.0,25.7,23.0,93,91,84,30.48,30.38,8,1,11,0.22
2013-1-5,43.4,34.1,27.6,28.0,25.1,22.0,90,71,48,30.43,30.33,11,3,16,0.22
2013-1-6,50.4,37.3,27.8,32.0,26.2,21.0,81,66,44,30.48,30.26,6,1,9,0.04
2013-1-7,52.2,40.8,33.0,32.0,27.4,22.0,83,60,44,30.25,29.87,11,4,16,0.00
2013-1-8,36.2,33.5,29.8,34.0,30.9,27.0,94,90,84,30.13,29.84,7,1,11,0.00
2013-1-9,38.3,35.5,32.7,37.0,34.1,32.0,96,94,89,30.21,30.08,10,2,13,1.09
2013-1-10,55.9,43.8,33.2,42.0,35.4,31.0,92,73,47,30.16,29.95,13,3,18,0.58
2013-1-11,64.4,56.3,48.9,38.0,25.7,18.0,65,33,17,29.94,29.67,25,6,27,0.00
2013-1-12,57.9,43.2,32.3,31.0,23.2,16.0,71,47,29,29.96,29.68,8,1,12,0.00
2013-1-13,43.3,33.2,26.5,21.0,15.5,10.0,71,50,31,30.18,29.97,6,1,15,0.00
2013-1-14,31.7,26.1,22.6,25.0,21.9,19.0,90,84,71,30.20,30.08,6,1,9,0.00
2013-1-15,38.8,27.4,22.5,23.0,20.3,18.0,88,75,51,30.39,30.19,8,1,10,0.00
2013-1-16,51.6,35.7,21.7,19.0,11.6,2.0,78,39,22,30.48,30.36,11,3,18,0.00
2013-1-17,56.6,43.1,31.2,25.0,20.8,16.0,58,43,27,30.53,30.40,11,2,16,0.00
2013-1-18,58.8,47.1,36.3,24.0,22.3,19.0,59,40,23,30.44,30.19,13,3,17,0.00
2013-1-19,70.5,54.2,44.5,24.0,20.9,16.0,39,28,16,30.21,30.06,12,3,17,0.00
2013-1-20,69.5,52.6,36.9,26.0,22.6,18.0,54,33,17,30.17,30.00,12,2,16,0.00
2013-1-21,60.1,47.5,38.6,26.0,22.6,18.0,55,39,24,30.18,30.05,8,2,10,0.00
2013-1-22,72.8,55.8,40.4,33.0,28.9,25.0,57,38,19,30.20,30.07,7,1,12,0.00
2013-1-23,74.6,60.4,49.6,33.0,31.3,28.0,50,35,21,30.20,30.08,11,2,18,0.00
2013-1-24,77.2,62.9,52.5,38.0,34.2,29.0,53,36,18,30.13,29.98,10,3,17,0.00
2013-1-25,76.6,63.1,54.1,40.0,36.4,32.0,57,38,26,30.06,29.92,9,2,15,0.00
2013-1-26,76.6,63.5,52.2,41.0,37.4,31.0,60,41,20,29.97,29.80,15,4,19,0.00
2013-1-27,74.3,63.6,52.8,43.0,37.9,32.0,61,40,24,29.85,29.75,13,3,23,0.00
2013-1-28,71.0,62.9,53.3,41.0,30.2,22.0,52,31,18,29.81,29.66,23,6,29,0.00
2013-1-29,63.2,50.6,38.3,29.0,20.3,6.0,47,31,20,29.89,29.56,29,11,39,0.00
2013-1-30,49.4,40.4,31.5,19.0,10.9,4.0,53,32,16,30.24,29.90,17,8,24,0.00
2013-1-31,64.4,47.4,35.6,17.0,11.1,5.0,34,24,13,30.28,30.12,7,1,10,0.00
2013-2-1,68.0,53.5,39.5,17.0,13.7,10.0,37,22,11,30.21,30.04,13,2,17,0.00
2013-2-2,64.8,53.1,42.9,22.0,15.1,7.0,42,23,14,30.24,30.09,10,2,14,0.00
2013-2-3,64.4,51.6,37.9,28.0,23.6,18.0,56,36,18,30.24,29.91,10,2,17,0.00
2013-2-4,69.1,58.5,50.9,31.0,27.5,21.0,41,31,22,29.91,29.78,20,5,28,0.00
2013-2-5,69.6,56.9,46.1,35.0,28.7,21.0,54,35,22,29.93,29.82,16,3,19,0.00
2013-2-6,71.9,58.4,47.4,35.0,30.8,28.0,50,37,23,29.87,29.73,13,1,19,0.00
2013-2-7,68.5,55.7,45.0,32.0,25.3,19.0,45,32,16,30.05,29.81,12,2,19,0.00
2013-2-8,63.5,49.8,35.8,36.0,29.6,23.0,70,47,30,30.10,29.87,14,4,24,0.00
2013-2-9,74.4,61.0,49.5,38.0,27.0,11.0,59,32,12,29.89,29.54,25,9,35,0.00
2013-2-10,62.6,49.5,39.2,21.0,17.2,14.0,38,28,19,29.92,29.69,14,3,20,0.00
2013-2-11,66.9,53.0,38.0,34.0,24.3,17.0,57,34,19,29.93,29.72,13,2,21,0.00
2013-2-12,55.4,45.9,35.0,33.0,15.1,-4.0,59,32,9,30.07,29.75,23,8,33,0.00
2013-2-13,58.3,43.6,30.6,23.0,9.9,-2.0,68,31,9,30.14,30.00,13,3,17,0.00
2013-2-14,65.9,50.7,39.0,12.0,8.7,6.0,26,19,11,30.06,29.91,12,3,18,0.00
2013-2-15,45.8,38.1,32.9,29.0,24.7,11.0,79,62,24,30.41,30.01,8,2,12,0.00
2013-2-16,62.2,45.5,27.7,26.0,17.5,8.0,81,40,13,30.49,30.16,13,2,14,0.00
2013-2-17,69.5,55.9,42.7,20.0,12.9,8.0,27,19,11,30.15,29.75,12,4,21,0.00
2013-2-18,68.0,57.3,44.9,19.0,5.5,-5.0,23,14,6,29.95,29.74,18,6,30,0.00
2013-2-19,60.3,51.0,43.4,28.0,18.4,2.0,53,29,13,29.98,29.82,13,3,16,0.00
2013-2-20,75.9,58.4,41.0,35.0,15.7,-22.0,71,33,2,29.87,29.39,26,6,38,0.00
2013-2-21,57.6,46.3,36.8,26.0,16.1,3.0,64,34,13,29.87,29.48,26,11,34,0.00
2013-2-22,61.3,47.2,33.9,16.0,10.6,7.0,38,24,13,29.97,29.87,12,2,23,0.00
2013-2-23,65.8,51.4,37.5,20.0,12.3,5.0,42,23,9,30.00,29.76,14,4,22,0.00
2013-2-24,72.1,59.4,41.7,16.0,2.2,-25.0,26,12,2,29.75,29.40,16,5,27,0.00
2013-2-25,54.1,41.8,32.0,18.0,10.4,2.0,49,29,16,30.01,29.61,24,12,31,0.00
2013-2-26,40.4,39.1,37.5,7.0,5.8,4.0,27,25,22,29.98,29.92,7,2,10,0.00
2013-3-2,53.7,52.2,50.3,13.0,11.8,11.0,22,20,18,30.19,30.15,3,1,8,0.00
2013-3-3,78.7,63.3,49.5,12.0,2.7,-31.0,21,11,1,30.15,29.79,16,4,22,0.00
2013-3-4,78.3,66.1,55.7,21.0,-31.7,-202.0,16,5,1,29.79,29.63,21,7,34,0.00
2013-3-5,65.2,48.6,36.6,32.0,23.4,14.0,68,41,17,30.23,29.80,11,4,21,0.00
2013-3-6,71.9,54.2,40.5,22.0,20.4,17.0,45,29,14,30.26,29.99,13,3,19,0.00
2013-3-7,77.8,63.7,52.2,27.0,20.9,16.0,31,21,10,29.98,29.78,10,2,18,0.00
2013-3-8,77.6,66.2,56.6,48.0,33.4,22.0,64,32,18,29.85,29.61,26,4,26,0.00
2013-3-9,70.5,61.4,48.0,42.0,28.8,14.0,51,30,18,29.76,29.51,16,5,21,0.00
2013-3-10,52.5,44.4,35.7,22.0,16.3,11.0,53,34,20,30.18,29.76,13,3,14,0.00
2013-3-11,66.6,51.6,37.7,18.0,11.5,3.0,36,22,8,30.19,29.99,13,3,17,0.00
2013-3-12,69.0,56.3,47.0,24.0,12.0,5.0,35,18,10,30.17,29.96,7,2,14,0.00
2013-3-13,75.3,54.9,38.8,26.0,19.4,10.0,50,30,9,30.30,30.14,10,2,14,0.00
2013-3-14,80.1,63.6,51.0,28.0,17.4,1.0,33,20,5,30.18,30.00,13,3,16,0.00
2013-3-15,82.8,67.2,53.0,30.0,17.8,7.0,35,18,6,30.04,29.78,9,2,14,0.00
2013-3-16,84.1,71.5,60.2,17.0,5.5,-9.0,17,9,3,29.79,29.55,14,4,25,0.00
2013-3-17,79.6,69.3,59.3,14.0,4.6,-4.0,15,8,4,29.67,29.52,22,8,31,0.00
2013-3-18,75.4,66.2,56.2,19.0,13.8,5.0,19,13,8,29.82,29.65,16,5,22,0.00
2013-3-19,80.9,66.8,52.8,29.0,13.7,1.0,34,14,5,29.89,29.71,16,3,20,0.00
2013-3-20,67.9,52.9,42.8,42.0,38.2,29.0,78,59,37,30.12,29.86,11,3,15,0.00
2013-3-21,83.3,67.7,53.9,43.0,28.6,4.0,62,32,5,29.84,29.48,21,6,31,0.00
2013-3-22,79.9,69.1,58.3,29.0,15.7,7.0,32,14,6,29.59,29.45,16,6,24,0.00
2013-3-23,74.2,63.9,52.7,30.0,15.9,-2.0,38,18,6,29.76,29.54,23,8,33,0.00
2013-3-24,56.7,42.1,27.1,17.0,7.6,-17.0,59,29,6,30.09,29.82,9,2,22,0.00
2013-3-25,58.6,44.8,31.9,16.0,11.9,6.0,39,27,18,30.24,30.04,10,3,15,0.00
2013-3-26,65.2,48.8,33.1,18.0,14.1,11.0,45,27,13,30.29,30.07,21,5,26,0.00
2013-3-27,79.3,62.2,45.9,36.0,27.2,19.0,44,28,13,30.08,29.86,18,3,19,0.00
2013-3-28,81.2,66.8,56.6,44.0,35.7,27.0,54,34,14,29.92,29.80,15,2,21,0.00
2013-3-29,80.9,66.9,56.4,47.0,40.7,25.0,64,43,13,29.91,29.80,11,2,17,0.00
2013-3-30,83.3,68.9,56.1,44.0,27.8,14.0,54,27,9,29.90,29.73,14,2,21,0.00
2013-3-31,77.6,69.8,59.1,37.0,29.4,21.0,42,23,15,29.82,29.71,10,2,21,0.00
2013-4-1,84.3,68.4,55.9,50.0,41.5,29.0,71,42,16,29.84,29.63,20,4,30,0.00
2013-4-2,71.3,60.5,46.6,48.0,45.1,42.0,85,58,39,29.80,29.66,11,3,19,0.00
2013-4-3,63.1,48.9,39.6,42.0,38.2,34.0,94,70,39,30.10,29.81,11,2,14,0.00
2013-4-4,75.7,58.4,42.1,36.0,30.5,22.0,71,41,15,30.15,30.00,9,2,15,0.00
2013-4-5,81.0,66.8,56.5,39.0,29.9,18.0,43,28,10,30.04,29.74,15,7,24,0.00
2013-4-6,83.2,71.4,59.1,39.0,21.3,6.0,42,19,6,29.78,29.65,15,5,21,0.00
2013-4-7,85.8,72.5,60.3,21.0,13.4,6.0,18,11,5,29.71,29.54,18,4,21,0.00
2013-4-8,84.5,74.0,60.6,24.0,15.9,11.0,22,12,7,29.56,29.32,13,4,28,0.00
2013-4-9,84.9,72.0,55.6,29.0,18.9,1.0,31,15,4,29.55,29.27,17,7,31,0.00
2013-4-10,60.7,50.6,38.6,31.0,24.3,22.0,54,37,25,29.87,29.55,12,2,14,0.00
2013-4-11,71.2,56.9,43.1,24.0,18.4,12.0,43,25,11,29.90,29.71,20,5,27,0.00
2013-4-12,80.5,64.2,50.6,38.0,17.6,9.0,37,19,7,29.78,29.59,16,3,27,0.00
2013-4-13,74.7,60.5,53.5,50.0,41.2,36.0,71,50,35,29.63,29.53,13,3,27,0.42
2013-4-14,81.8,67.0,54.0,37.0,28.1,12.0,53,28,8,29.69,29.53,19,4,26,0.00
2013-4-15,85.0,73.1,61.2,25.0,18.8,10.0,25,14,6,29.63,29.53,18,4,21,0.00
2013-4-16,90.1,75.4,61.9,55.0,-1.7,-99.9,62,14,1,29.64,29.52,10,3,21,0.00
2013-4-17,86.9,75.1,62.1,57.0,25.1,-15.0,75,31,2,29.54,29.41,15,4,24,0.01
2013-4-18,71.1,56.1,42.8,31.0,24.0,4.0,64,31,7,30.00,29.51,15,3,20,0.00
2013-4-19,69.2,52.4,34.6,22.0,15.8,9.0,47,27,10,30.23,30.00,11,2,17,0.00
2013-4-20,80.2,63.9,47.6,24.0,11.8,-21.0,35,18,2,30.02,29.69,14,4,23,0.00
2013-4-21,85.5,69.6,54.2,18.0,4.1,-8.0,17,9,3,29.91,29.76,12,2,16,0.00
2013-4-22,90.1,73.8,58.3,33.0,5.6,-26.0,25,10,1,29.82,29.61,11,2,18,0.00
2013-4-23,69.9,59.6,46.7,36.0,31.2,26.0,58,36,24,29.96,29.57,11,2,16,0.00
2013-4-24,68.2,48.3,32.6,38.0,29.0,25.0,73,50,27,30.22,29.96,8,2,16,0.00
2013-4-25,80.3,61.4,45.3,44.0,38.1,30.0,63,45,22,30.14,29.80,16,5,27,0.00
2013-4-26,85.5,70.6,56.1,43.0,24.8,2.0,58,28,4,29.93,29.84,14,4,25,0.00
2013-4-27,80.7,67.6,54.4,51.0,36.7,19.0,59,33,22,29.93,29.77,8,2,23,0.00
2013-4-28,79.3,65.1,56.7,56.0,49.6,38.0,86,61,25,29.82,29.68,27,3,30,0.19
2013-4-29,85.8,68.2,51.8,49.0,40.1,30.0,77,43,15,29.79,29.58,13,3,16,0.00
2013-4-30,91.2,76.8,62.5,41.0,18.6,-10.0,42,17,2,29.61,29.47,13,4,22,0.00
2013-5-1,92.6,78.4,66.0,31.0,12.3,5.0,25,9,4,29.72,29.53,10,2,20,0.00
2013-5-2,69.5,46.6,37.8,42.0,30.5,22.0,90,56,25,30.43,29.73,13,5,17,0.00
2013-5-3,68.2,49.5,31.3,24.0,16.2,8.0,69,34,10,30.47,30.03,7,2,17,0.00
2013-5-4,78.5,57.6,48.9,29.0,15.8,11.0,26,20,13,30.03,29.82,7,2,13,0.00
2013-5-6,82.9,64.4,63.2,42.0,12.8,-99.9,41,19,13,29.85,0.00,13,-142,25,0.00
2013-5-7,85.9,70.9,57.7,44.0,32.9,24.0,48,28,12,29.83,29.68,11,3,17,0.00
2013-5-8,83.7,69.3,59.7,49.0,38.1,18.0,62,38,9,29.79,29.67,11,2,16,0.00
2013-6-16,80.9,66.9,75.5,64.0,41.1,-99.9,66,53,54,29.77,29.75,9,-129,10,0.00
2013-6-17,91.7,75.2,66.3,64.0,58.7,54.0,78,58,30,29.82,29.66,10,1,18,0.53
2013-6-18,88.1,75.0,61.9,67.0,60.5,54.0,87,62,41,29.86,29.70,12,3,17,0.00
2013-6-19,93.9,80.5,69.7,63.0,58.4,45.0,77,51,20,29.73,29.58,26,5,34,0.00
2013-6-20,91.6,75.9,70.7,63.0,49.7,-99.9,70,47,20,29.79,29.60,22,-57,26,0.00
2013-6-21,92.4,69.4,64.4,65.0,42.9,-99.9,90,52,30,29.80,29.61,15,-105,37,0.88
2013-6-22,94.0,77.5,68.5,63.0,59.8,52.0,78,57,24,29.73,29.63,14,3,17,0.43
2013-6-23,94.3,80.4,70.4,62.0,58.2,48.0,69,50,21,29.69,29.56,19,5,25,0.00
2013-6-24,93.0,79.3,70.1,62.0,58.8,56.0,65,51,29,29.69,29.60,14,4,22,0.00
2013-6-25,95.1,81.8,72.5,63.0,59.8,52.0,68,49,28,29.70,29.60,10,2,15,0.00
2013-6-26,101.6,85.8,73.7,64.0,53.9,35.0,68,39,10,29.71,29.61,11,3,17,0.00
2013-6-27,97.6,84.1,72.9,60.0,52.7,39.0,61,37,13,29.75,29.66,15,3,21,0.00
2013-6-28,96.7,81.3,65.3,58.0,50.0,41.0,72,38,15,29.82,29.73,9,2,18,0.00
2013-6-29,97.3,83.3,69.7,56.0,50.1,44.0,57,34,18,29.78,29.64,9,1,15,0.00
2013-6-30,90.0,78.5,69.7,56.0,52.6,47.0,56,41,27,29.76,29.65,11,2,16,0.00
2013-7-1,76.7,67.9,62.6,60.0,56.2,52.0,85,67,51,29.97,29.74,5,2,11,0.00
2013-7-2,82.6,69.7,56.1,55.0,51.0,47.0,85,56,31,30.04,29.86,9,1,14,0.00
2013-7-3,83.1,74.5,67.2,50.0,46.0,40.0,46,37,28,29.94,29.72,9,3,15,0.00
2013-7-4,91.1,77.6,64.7,50.0,46.6,41.0,52,35,20,29.77,29.62,15,4,22,0.00
2013-7-5,94.1,80.9,68.0,54.0,49.8,46.0,53,36,20,29.71,29.56,16,4,22,0.00
2013-7-6,94.9,71.2,70.6,54.0,37.6,-99.9,50,37,21,29.66,29.54,16,-85,24,0.00
2013-7-7,91.6,79.1,67.9,57.0,51.0,46.0,55,39,21,29.75,29.63,18,4,22,0.00
2013-7-8,89.1,76.4,68.4,61.0,58.3,55.0,72,55,31,29.83,29.72,16,4,24,0.00
2013-7-9,90.0,76.9,67.3,62.0,59.7,56.0,76,57,32,29.87,29.75,11,4,18,0.00
2013-7-10,91.9,80.2,69.1,62.0,58.3,53.0,73,50,27,29.87,29.70,16,4,18,0.00
2013-7-11,93.8,81.1,71.2,59.0,55.2,50.0,62,43,24,29.78,29.64,11,4,23,0.00
2013-7-12,94.1,80.1,67.8,59.0,54.4,48.0,70,45,22,29.72,29.62,16,4,28,0.00
2013-7-13,93.1,80.9,68.7,54.0,50.0,45.0,56,36,19,29.78,29.66,12,4,21,0.00
2013-7-14,95.3,82.2,68.5,52.0,44.8,36.0,54,30,13,29.75,29.56,13,3,18,0.00
2013-7-15,79.6,66.0,58.7,62.0,56.7,47.0,96,77,32,29.92,29.57,6,1,12,0.08
2013-7-16,63.1,60.9,59.2,61.0,59.2,58.0,96,94,91,30.04,29.92,4,0,9,0.08
2013-7-17,72.3,66.1,61.4,65.0,62.5,59.0,97,88,74,30.06,29.97,14,3,19,0.62
2013-7-18,72.2,67.5,64.7,64.0,62.2,61.0,92,83,71,30.00,29.88,12,4,16,0.03
2013-7-19,80.4,70.2,65.2,64.0,62.3,61.0,89,77,55,29.92,29.77,11,4,17,0.00
2013-7-20,77.1,70.9,66.1,64.0,61.6,58.0,89,73,56,29.83,29.71,11,3,19,0.00
2013-7-21,83.5,72.6,63.8,65.0,61.6,58.0,89,71,44,29.80,29.67,10,3,17,0.03
2013-7-22,86.2,74.8,65.9,65.0,62.3,57.0,86,67,38,29.77,29.67,13,2,23,0.00
2013-7-23,88.9,78.0,69.4,65.0,62.1,55.0,82,61,35,29.78,29.66,13,3,23,0.00
2013-7-24,88.6,76.8,69.5,69.0,61.9,56.0,84,62,37,29.79,29.70,11,1,14,0.06
2013-7-25,93.7,77.7,63.9,63.0,56.5,49.0,84,52,22,29.89,29.76,11,2,16,0.00
2013-7-26,91.9,76.7,70.1,64.0,58.6,54.0,73,55,32,29.86,29.78,9,2,19,0.00
2013-7-27,91.0,76.5,67.8,64.0,59.6,53.0,84,59,29,29.91,29.75,8,1,15,0.00
2013-7-28,90.7,76.2,66.7,63.0,60.0,54.0,77,59,33,29.80,29.63,14,3,19,0.00
2013-7-29,87.9,76.7,70.3,64.0,60.3,53.0,78,58,36,29.83,29.71,14,2,16,0.00
2013-7-30,95.1,79.2,73.0,65.0,60.8,56.0,70,55,28,29.86,29.79,13,2,18,0.02
2013-7-31,96.5,81.6,69.5,62.0,57.0,54.0,68,45,25,29.90,29.76,12,2,17,0.00
2013-8-1,91.8,79.7,67.0,60.0,51.0,45.0,68,40,20,29.86,29.74,16,3,22,0.00
2013-8-2,96.7,82.2,69.5,54.0,49.2,43.0,51,33,18,29.79,29.66,10,2,14,0.00
2013-8-3,96.3,81.0,71.8,55.0,52.5,46.0,53,39,18,29.76,29.68,13,3,23,0.00
2013-8-4,95.4,82.1,70.4,61.0,55.9,52.0,62,43,25,29.77,29.65,21,5,24,0.00
2013-8-5,97.1,82.5,71.1,60.0,56.2,51.0,63,43,21,29.76,29.63,17,3,21,0.00
2013-8-6,93.2,77.7,70.8,67.0,58.5,54.0,80,53,29,29.73,29.66,15,2,29,0.13
2013-8-7,86.0,74.5,65.8,66.0,59.4,54.0,84,60,38,29.82,29.71,9,2,30,0.40
2013-8-8,95.5,80.4,70.1,59.0,55.4,50.0,65,45,22,29.77,29.63,10,2,25,0.00
2013-8-9,91.7,78.2,69.3,60.0,57.1,54.0,73,50,29,29.86,29.68,12,2,16,0.00
2013-8-10,87.8,76.0,66.9,63.0,59.5,56.0,76,58,39,29.95,29.83,10,1,19,0.00
2013-8-11,89.8,78.0,68.1,61.0,57.8,54.0,76,52,30,29.91,29.78,14,3,21,0.00
2013-8-12,91.2,78.4,66.9,62.0,58.4,55.0,78,52,33,29.84,29.72,14,3,19,0.00
2013-8-13,95.9,78.5,67.9,60.0,52.2,-99.9,73,46,22,29.82,29.69,9,-30,16,0.00
2013-8-14,89.8,79.6,69.0,63.0,59.7,57.0,71,52,37,29.81,29.71,12,2,15,0.00
2013-8-15,94.7,80.6,68.3,61.0,55.3,49.0,71,45,25,29.83,29.72,7,1,14,0.00
2013-8-16,96.4,81.5,67.4,60.0,51.2,41.0,54,37,15,29.82,29.73,11,1,17,0.00
2013-8-17,96.6,81.5,63.9,58.0,53.1,45.0,75,41,19,29.89,29.72,13,3,21,0.16
2013-8-18,94.2,78.1,69.9,60.0,53.4,49.0,62,44,22,29.83,29.76,13,4,26,0.01
2013-8-19,93.5,79.7,67.8,56.0,47.6,33.0,60,36,12,29.86,29.73,13,3,21,0.00
2013-8-20,88.6,78.2,70.3,52.0,50.4,47.0,50,39,28,29.80,29.72,12,4,19,0.00
2013-8-21,88.0,76.3,64.4,56.0,48.4,42.0,55,39,23,29.88,29.77,11,3,21,0.00
2013-8-22,88.0,74.5,66.1,62.0,57.6,52.0,77,58,29,29.86,29.75,13,3,17,0.14
2013-8-23,81.0,71.6,63.4,65.0,58.8,53.0,91,65,42,29.91,29.80,14,2,38,0.63
2013-8-24,86.1,75.5,67.5,61.0,57.5,53.0,76,56,34,29.92,29.78,15,4,21,0.00
2013-8-25,86.9,76.1,65.3,61.0,57.1,53.0,74,53,36,29.95,29.83,14,4,22,0.00
2013-8-26,85.7,75.6,67.0,63.0,58.2,53.0,81,57,34,29.93,29.81,12,3,19,0.00
2013-8-27,75.7,71.4,67.3,64.0,61.4,60.0,81,71,61,29.88,29.81,12,5,17,0.00
2013-8-28,86.2,74.6,66.3,62.0,59.6,52.0,83,62,41,29.90,29.80,13,4,19,0.00
2013-8-29,91.6,78.6,66.4,60.0,54.6,48.0,71,46,26,29.93,29.79,9,3,14,0.00
2013-8-30,96.4,80.1,64.5,59.0,50.7,37.0,75,41,13,29.86,29.71,10,3,18,0.00
2013-8-31,93.1,76.3,65.8,54.0,52.7,47.0,65,46,21,29.76,29.70,7,1,13,0.00
2013-9-1,79.8,78.7,77.3,53.0,52.9,52.0,42,41,40,29.71,29.68,12,8,17,0.00
2013-9-2,88.4,77.7,67.5,58.0,54.7,52.0,61,46,32,29.80,29.70,10,1,15,0.00
2013-9-3,87.5,75.3,63.2,62.0,54.3,48.0,71,50,32,29.88,29.75,9,2,19,0.00
2013-9-4,89.6,77.3,62.7,58.0,51.9,48.0,67,44,25,29.92,29.79,14,4,24,0.00
2013-9-5,89.3,77.7,67.6,58.0,55.1,52.0,66,47,29,29.91,29.81,15,3,21,0.00
2013-9-6,89.0,76.0,64.7,59.0,55.8,52.0,75,52,30,29.92,29.77,16,4,19,0.00
2013-9-7,89.0,75.8,62.2,60.0,55.8,52.0,81,53,29,29.86,29.72,10,3,21,0.00
2013-9-8,87.5,73.1,62.9,65.0,58.7,54.0,83,63,32,29.79,29.64,15,3,18,0.08
2013-9-9,82.9,69.3,62.9,64.0,60.7,58.0,93,76,44,29.76,29.70,14,4,24,0.39
2013-9-10,81.6,71.9,64.8,63.0,61.6,58.0,88,71,49,29.84,29.74,16,6,24,0.00
2013-9-11,79.0,71.1,67.6,63.0,62.5,61.0,84,74,57,29.83,29.76,16,5,24,0.00
2013-9-12,80.3,72.3,67.6,62.0,60.1,57.0,82,67,46,29.87,29.76,15,5,24,0.00
2013-9-13,83.4,73.0,62.7,61.0,55.2,51.0,85,56,35,29.82,29.67,13,4,20,0.00
2013-9-14,84.5,72.9,61.0,56.0,51.6,45.0,75,50,30,29.77,29.66,17,5,25,0.00
2013-9-15,85.2,73.2,63.6,60.0,56.2,49.0,73,57,30,29.84,29.73,15,3,22,0.00
2013-9-16,71.4,67.3,63.2,61.0,57.4,54.0,82,71,60,29.88,29.82,10,2,14,0.00
2013-9-19,65.8,64.7,63.5,63.0,62.6,62.0,94,92,90,29.76,29.73,5,1,10,0.53
2013-9-20,72.2,63.9,59.9,67.0,61.5,58.0,95,92,77,29.91,29.72,11,2,20,0.66
2013-9-21,75.0,64.7,58.7,59.0,57.4,56.0,96,79,52,29.96,29.80,4,0,9,0.00
2013-9-22,80.6,67.5,53.9,56.0,51.3,48.0,83,59,33,29.83,29.62,13,3,17,0.00
2013-9-23,86.6,73.1,61.9,56.0,49.7,42.0,67,46,22,29.74,29.62,16,3,19,0.00
2013-9-24,86.1,71.3,57.9,47.0,39.4,34.0,55,34,16,29.87,29.74,6,1,9,0.00
2013-9-25,90.0,74.5,61.0,53.0,42.9,36.0,53,35,15,29.80,29.59,11,2,16,0.00
2013-9-26,90.7,77.7,66.7,57.0,50.4,43.0,58,41,22,29.63,29.53,17,4,21,0.00
2013-9-27,88.3,76.3,68.8,65.0,57.6,53.0,80,55,30,29.60,29.50,13,6,21,0.03
2013-9-28,77.4,66.9,59.4,65.0,42.3,-99.9,82,47,22,29.98,29.57,11,-30,16,0.01
2013-9-29,70.2,57.7,53.2,51.0,48.3,47.0,82,72,44,30.01,29.97,1,0,4,0.00
2013-9-30,87.6,73.2,60.2,45.0,34.7,26.0,53,28,11,29.85,29.67,13,3,18,0.00
2013-10-1,90.2,76.1,63.7,36.0,29.9,20.0,32,20,9,29.74,29.66,13,4,21,0.00
2013-10-2,90.9,77.5,66.4,48.0,33.7,27.0,42,21,13,29.75,29.62,11,2,16,0.00
2013-10-3,90.2,78.4,68.5,59.0,48.1,43.0,60,37,20,29.68,29.54,14,4,20,0.00
2013-10-4,90.7,78.3,68.0,58.0,45.0,28.0,63,35,14,29.67,29.56,15,3,18,0.00
2013-10-5,71.9,63.8,54.9,47.0,33.5,21.0,52,33,22,30.02,29.67,8,2,14,0.00
2013-10-6,67.1,53.7,49.2,34.0,30.6,29.0,51,42,25,30.15,30.01,4,0,8,0.00
2013-10-7,79.9,65.0,46.4,28.0,18.8,11.0,41,20,8,30.12,29.96,11,3,15,0.00
2013-10-8,84.1,69.1,56.6,35.0,29.2,22.0,31,23,13,29.97,29.73,10,3,18,0.00
2013-10-9,86.9,72.6,60.5,47.0,36.6,28.0,48,29,12,29.78,29.66,14,4,23,0.00
2013-10-10,86.3,74.4,64.3,52.0,44.2,31.0,54,37,15,29.71,29.57,15,6,22,0.00
2013-10-11,85.1,71.5,59.7,52.0,34.1,25.0,57,27,13,29.77,29.61,12,2,17,0.00
2013-10-12,63.8,60.7,57.9,40.0,36.1,31.0,50,40,29,29.78,29.76,2,0,10,0.00
2013-10-14,67.5,67.3,67.0,49.0,48.8,48.0,53,52,51,29.81,29.80,1,0,6,0.00
2013-10-15,67.5,57.6,48.1,58.0,53.6,47.0,96,87,53,29.96,29.78,10,1,16,0.60
2013-10-16,68.6,53.4,47.4,57.0,50.1,46.0,97,89,66,30.07,29.94,11,1,13,0.02
2013-10-17,78.5,63.2,51.2,57.0,52.6,48.0,94,72,35,30.02,29.77,9,1,13,0.00
2013-10-18,78.6,65.3,49.0,59.0,44.5,26.0,91,56,16,30.00,29.71,15,3,20,0.00
2013-10-19,72.5,54.9,42.3,47.0,41.3,35.0,77,62,39,30.10,29.92,12,2,17,0.00
2013-10-20,78.9,64.5,52.9,51.0,40.3,27.0,81,47,17,29.95,29.70,11,2,18,0.00
2013-10-21,67.4,58.3,48.1,41.0,36.4,26.0,67,45,34,30.05,29.77,9,2,12,0.00
2013-10-22,73.9,57.6,45.1,45.0,37.2,29.0,85,52,21,30.16,30.02,8,1,11,0.00
2013-10-23,77.8,62.0,45.9,38.0,32.5,27.0,55,35,18,30.08,29.92,10,2,14,0.00
2013-10-24,74.7,58.9,51.9,38.0,36.0,34.0,55,43,23,30.02,29.97,7,1,14,0.00
2013-10-28,79.8,74.2,65.0,55.0,36.4,24.0,69,29,15,29.80,29.72,14,3,19,0.00
2013-10-29,79.7,68.8,61.5,61.0,50.3,41.0,83,53,29,29.83,29.71,9,2,15,0.00
2013-10-30,73.5,66.7,62.0,61.0,49.5,43.0,83,56,36,29.81,29.68,12,2,19,0.01
2013-10-31,70.7,62.5,53.5,48.0,35.3,23.0,67,40,17,29.89,29.72,18,5,29,0.00
2013-11-1,73.1,61.3,51.5,29.0,21.5,13.0,35,23,11,30.08,29.82,14,4,23,0.00
2013-11-2,69.5,55.2,46.8,32.0,27.1,18.0,52,36,14,30.20,30.08,13,3,19,0.00
2013-11-8,50.1,47.2,45.8,46.0,44.4,44.0,92,89,84,30.08,30.05,4,1,10,0.22
2013-11-9,74.9,58.4,46.0,50.0,43.0,35.0,93,63,24,30.12,30.00,12,3,16,0.02
2013-11-10,75.1,61.1,46.6,48.0,40.6,37.0,70,50,26,30.13,30.02,8,1,11,0.00
2013-11-11,77.0,61.5,51.4,52.0,46.2,42.0,82,60,36,30.09,29.97,12,1,13,0.00
2013-11-12,57.7,42.5,33.9,50.0,39.9,33.0,95,91,69,30.61,30.08,9,2,16,0.21
2013-11-13,53.3,37.6,34.1,44.0,34.6,32.0,95,89,70,30.61,30.46,1,0,7,0.01
2013-12-1,70.8,63.4,60.2,41.0,34.6,-99.9,47,37,31,30.02,0.00,8,-33,12,0.00
2013-12-2,73.0,62.7,55.5,37.0,25.3,13.0,46,26,10,29.90,29.69,19,8,25,0.00
2013-12-3,72.5,63.4,56.6,41.0,31.0,15.0,45,31,17,29.69,29.56,16,6,28,0.00
2013-12-4,74.4,64.4,54.1,44.0,40.6,36.0,59,43,28,29.68,29.57,17,3,24,0.00
2013-12-5,62.0,38.7,28.3,43.0,21.7,-99.9,94,68,37,29.98,29.64,11,-82,23,0.18
2013-12-6,31.6,24.8,25.6,31.0,9.2,-99.9,96,81,94,30.38,29.97,3,-144,6,0.01
2013-12-7,33.0,24.1,21.4,32.0,13.4,-99.9,96,86,93,30.40,30.18,0,-73,0,0.00
2013-12-8,66.3,48.4,33.5,37.0,29.0,14.0,97,57,13,30.17,29.93,15,2,20,0.01
2013-12-9,60.7,45.9,29.7,34.0,26.8,-99.9,94,52,32,30.30,29.89,10,-8,14,0.00
2013-12-10,59.0,40.9,27.0,28.0,22.9,14.0,94,56,17,30.39,30.21,10,2,15,0.00
2013-12-11,50.5,43.6,35.9,32.0,24.9,19.0,59,49,31,30.49,30.18,8,1,13,0.00
2013-12-12,55.2,42.3,33.4,32.0,21.4,-99.9,62,47,33,30.48,30.16,5,-20,9,0.00
2013-12-13,61.6,51.3,43.5,41.0,32.6,26.0,67,50,30,30.16,29.86,22,6,32,0.00
2013-12-14,50.8,43.4,35.2,31.0,23.3,19.0,71,46,29,30.37,29.91,11,2,14,0.00
2013-12-15,59.4,44.7,32.3,23.0,19.3,16.0,62,39,19,30.38,30.23,15,3,20,0.00
2013-12-16,66.2,51.7,43.2,22.0,20.0,18.0,41,30,17,30.26,30.12,16,4,22,0.00
2013-12-17,69.6,53.0,39.0,23.0,20.3,17.0,46,30,13,30.26,30.14,5,0,9,0.00
2013-12-18,69.7,55.7,43.0,26.0,22.2,17.0,44,29,14,30.18,29.87,10,2,17,0.00
2013-12-19,73.7,63.8,55.3,38.0,31.6,25.0,42,30,25,29.86,29.59,25,4,25,0.00
2013-12-20,66.5,57.5,46.8,51.0,44.6,38.0,92,65,41,29.65,29.43,18,6,27,0.83
2013-12-21,52.0,45.4,38.1,46.0,31.9,26.0,84,61,42,29.82,29.46,24,9,35,0.00
2013-12-22,45.8,39.1,32.1,35.0,28.5,-99.9,87,70,54,30.31,29.82,15,-18,26,0.00
2013-12-23,59.2,42.8,30.6,31.0,23.4,-99.9,89,54,23,30.46,30.31,7,-20,10,0.00
2013-12-24,61.6,48.2,36.9,32.0,28.1,24.0,64,47,31,30.42,30.11,10,1,18,0.00
2013-12-25,49.1,41.9,33.7,32.0,30.1,27.0,86,64,48,30.41,30.10,7,2,12,0.00
2013-12-26,54.9,39.6,29.3,34.0,27.8,21.0,92,67,33,30.43,30.25,6,1,11,0.01
2013-12-27,53.6,41.1,30.4,36.0,28.7,22.0,85,62,45,30.38,30.26,6,1,9,0.00
2013-12-28,58.1,46.2,34.6,39.0,34.5,32.0,91,66,40,30.27,29.91,13,2,19,0.00
2013-12-29,48.9,40.6,30.2,32.0,26.2,21.0,70,57,45,30.24,29.88,8,3,14,0.00
2013-12-30,63.4,43.4,27.8,27.0,22.2,16.0,74,47,16,30.34,30.20,7,1,12,0.00
2013-12-31,61.2,46.0,33.8,27.0,21.5,-99.9,62,42,24,30.33,30.12,10,-19,18,0.00
2014-1-1,66.7,52.7,41.8,32.0,26.5,20.0,60,39,17,30.15,29.93,16,4,25,0.00
2014-1-2,55.7,41.9,28.9,28.0,24.2,18.0,85,53,27,30.38,30.16,11,3,13,0.00